GEFSCGP_con_prob3kmehi_138.txt.gz
EHI
0 0 0 0 0 0 0 0 0 0 0 0 0 1 2 3 5 10 14 15 14 11 6 3 3 3 3 3 2 2 2 1 0 1 2 1 0 0 0 0 0 0 0 0
0 0 0 0 0 0 0 0 0 0 0 0 0 0 1 2 4 9 12 13 12 10 6 3 3 3 3 3 1 1 1 0 0 0 1 0 0 0 0 0 0 0 0 0
0 0 0 0 0 0 0 0 0 0 0 0 0 0 2 3 4 7 9 9 9 8 6 3 3 3 3 2 1 0 0 0 0 0 0 0 0 0 0 0 0 0 0 0
0 0 0 0 0 0 0 0 0 0 0 0 0 1 3 4 4 6 7 7 8 8 6 3 3 3 1 1 0 0 0 0 0 0 0 0 0 0 0 0 0 0 0 0
0 0 0 0 0 0 0 0 0 0 0 0 0 0 2 3 4 6 8 8 8 9 6 3 2 2 1 0 0 0 0 0 0 0 0 0 0 0 0 0 0 0 0 0
0 0 0 0 0 0 0 0 0 0 0 0 0 0 0 1 2 4 8 10 10 8 6 3 2 1 0 0 0 0 0 0 0 0 0 0 0 0 0 0 0 0 0 0
0 0 0 0 0 0 0 0 0 0 0 0 0 0 0 0 0 2 6 10 11 9 6 4 2 1 0 0 0 0 0 0 0 0 0 0 0 0 0 0 0 0 0 0
0 0 0 0 0 0 0 0 0 0 0 0 0 0 0 0 0 1 4 9 11 10 7 5 4 3 1 1 1 1 0 0 0 0 0 0 0 0 0 0 0 0 0 0
0 0 0 0 0 0 0 0 0 0 0 0 0 0 0 0 0 0 3 8 11 10 7 5 5 5 3 3 3 2 1 1 0 0 0 0 0 0 0 0 0 0 0 0
0 0 0 0 0 0 0 0 0 0 0 0 0 0 0 0 1 1 4 8 11 10 7 5 5 5 4 3 3 2 1 0 0 0 0 0 0 0 0 0 0 0 0 0
0 0 0 0 0 0 0 0 0 0 0 0 0 0 0 1 2 3 5 7 9 9 7 5 6 6 4 3 3 2 1 1 1 0 0 0 0 0 0 0 0 0 0 0
0 0 0 0 0 0 0 0 0 0 0 0 0 0 0 1 2 3 5 7 9 8 7 6 8 8 7 5 4 4 3 2 1 0 0 0 0 0 0 0 0 0 0 0
0 0 0 0 0 0 0 0 0 0 0 0 0 0 0 0 1 3 5 7 9 9 9 11 13 13 11 8 5 4 3 3 1 0 0 0 1 1 2 1 1 1 0 0
0 0 0 0 0 0 0 0 0 0 0 0 0 0 0 0 0 2 5 8 11 13 15 18 20 18 16 11 6 3 3 3 1 1 0 1 2 3 3 3 2 2 1 0
0 0 0 0 0 0 0 0 0 0 0 0 0 0 0 0 1 2 5 9 14 17 20 22 24 24 21 14 7 3 3 3 3 2 1 2 3 3 3 3 3 3 2 1
0 0 0 0 0 0 0 0 0 0 0 0 0 0 0 0 1 3 6 10 14 17 20 22 25 27 25 16 7 4 3 3 3 3 2 2 3 3 3 3 3 3 3 3
0 0 0 0 0 0 0 0 0 0 0 0 0 0 0 0 1 2 5 8 10 13 17 19 22 25 22 14 7 3 3 3 3 3 2 2 3 3 3 3 3 3 3 3
0 0 0 0 0 0 0 0 0 0 0 0 0 0 0 0 0 1 2 4 6 9 13 15 16 17 16 11 6 3 2 3 3 3 2 2 2 3 3 3 3 3 2 1
0 0 0 0 0 0 0 0 0 0 0 0 0 0 0 0 0 0 0 2 5 8 11 12 10 10 10 9 7 5 3 3 3 4 3 1 2 2 2 2 2 1 1 0
0 0 0 0 0 0 0 0 0 0 0 0 0 0 0 0 0 0 1 3 6 8 11 11 9 7 9 10 9 6 4 3 4 4 3 1 1 1 1 1 1 0 0 0
0 0 0 0 0 0 0 0 0 0 0 0 0 0 0 1 2 2 3 5 7 9 10 11 9 9 10 11 10 6 3 3 3 4 3 1 0 0 0 0 0 0 0 0
0 0 0 0 0 0 0 1 1 1 1 0 0 0 0 1 3 3 4 6 8 10 10 10 10 10 12 12 9 5 2 1 2 2 2 1 1 0 0 0 0 0 0 0
0 0 0 1 1 0 1 2 2 2 1 0 0 0 0 1 1 2 3 4 7 9 9 9 9 11 11 9 5 4 3 3 3 3 3 3 2 1 0 0 0 0 1 1
0 0 0 1 1 0 0 1 1 1 0 0 0 0 0 0 0 1 2 3 4 6 7 8 9 10 8 5 3 4 7 8 7 6 5 4 2 1 0 0 0 0 0 0
0 0 0 0 0 0 0 0 0 0 0 0 0 0 0 0 0 0 2 3 3 4 5 7 8 7 5 3 3 5 9 11 10 8 5 3 1 1 1 1 1 0 0 0
0 0 0 0 0 0 0 0 0 0 0 0 0 0 0 0 0 0 2 3 4 4 4 5 5 5 4 4 5 6 9 9 9 7 4 1 0 0 1 1 1 0 0 0

GEFSCGP_con_prob3kmehi_144.txt.gz
EHI
0 0 0 0 0 0 0 0 0 0 0 1 1 4 12 18 19 24 31 35 35 31 27 21 14 10 10 11 14 17 18 17 14 14 13 8 5 5 7 8 6 3 2 1
0 0 0 0 0 0 0 0 0 0 0 0 0 2 9 16 18 23 31 35 35 31 26 20 12 8 8 10 11 14 16 13 11 11 10 7 5 5 6 6 3 1 1 0
0 0 0 0 0 0 0 0 0 0 0 0 0 1 8 15 18 21 29 34 33 30 25 18 10 6 7 7 8 11 11 9 7 6 5 3 3 4 4 3 1 0 0 0
0 0 0 0 0 0 0 0 0 0 0 1 0 2 9 16 18 21 28 33 31 28 25 18 10 7 6 7 7 8 9 8 5 2 1 1 2 2 2 1 1 0 0 0
0 0 0 0 0 0 0 0 0 0 0 0 0 3 10 14 16 21 28 34 32 28 25 18 12 8 7 6 5 6 8 8 4 2 1 1 1 0 0 0 1 0 0 0
0 0 0 0 0 0 0 0 0 0 0 0 0 3 7 10 13 20 29 35 34 29 25 20 14 11 8 5 3 4 7 7 4 2 2 1 0 0 0 0 0 0 0 0
0 0 0 0 0 0 0 0 0 0 0 0 0 1 4 5 8 15 25 33 34 30 26 23 19 15 12 8 6 7 9 7 5 4 3 1 0 0 1 0 0 0 0 0
0 0 0 0 0 0 0 0 0 0 0 0 0 0 1 2 3 8 18 28 33 31 28 25 23 21 17 14 12 13 15 12 7 5 5 2 0 0 0 0 0 0 0 0
0 0 0 0 0 0 0 0 0 0 0 0 0 0 0 0 1 5 13 25 31 30 28 26 26 26 22 19 18 20 23 20 11 7 6 3 0 0 0 0 0 0 0 0
1 0 0 0 0 0 0 0 0 0 0 0 0 0 0 0 1 4 13 25 30 29 27 27 29 30 26 21 20 24 30 27 16 8 4 2 0 0 0 0 0 0 0 0
1 0 0 0 0 0 0 0 0 0 0 0 0 0 0 1 1 3 12 23 30 29 26 27 31 33 28 21 21 27 32 28 18 8 4 1 0 0 0 0 0 0 0 0
1 0 0 0 0 0 0 0 0 0 0 0 0 0 0 1 1 3 9 20 28 29 27 31 34 34 30 25 25 30 32 27 17 9 5 2 1 0 0 0 0 0 0 0
0 0 0 0 0 0 0 0 0 0 0 0 0 0 0 2 2 4 10 21 30 33 35 41 44 42 38 35 34 32 30 25 19 12 7 4 2 0 0 0 1 1 1 1
0 0 0 0 0 0 0 0 0 0 0 0 0 0 0 1 3 5 14 27 35 40 48 55 62 61 54 49 44 36 30 27 22 17 12 9 5 2 1 1 2 2 2 2
1 0 0 0 0 0 0 0 0 0 0 0 0 0 0 1 2 5 15 30 40 46 55 66 75 75 67 60 52 42 35 32 27 21 16 13 10 6 4 3 3 3 3 3
2 2 1 0 0 0 0 0 0 0 0 0 0 0 0 1 3 6 15 30 42 48 56 69 77 76 71 65 57 48 42 38 31 23 17 14 12 10 7 5 3 3 3 3
3 3 2 1 0 0 0 0 0 1 1 2 3 2 1 3 6 10 17 31 43 48 56 70 77 74 69 64 58 51 46 41 33 24 18 14 12 10 9 7 5 5 4 4
3 3 2 1 0 0 0 1 1 2 4 5 6 4 2 3 6 11 18 31 42 47 56 72 79 74 66 62 58 53 47 41 30 20 15 12 10 10 10 9 9 8 7 6
3 3 1 0 0 0 1 2 2 3 6 9 9 7 5 3 4 10 18 29 40 46 57 70 74 70 67 63 60 54 47 36 24 15 12 10 10 11 11 12 12 12 11 10
3 2 1 0 0 0 1 2 2 3 8 12 12 12 12 9 9 14 21 30 39 49 61 69 68 67 70 69 65 58 47 33 20 13 12 13 14 14 14 15 15 14 12 12
1 1 0 0 0 0 1 2 3 5 9 11 11 13 16 17 18 20 25 32 42 53 62 68 70 73 76 75 71 62 50 37 23 16 16 17 16 15 15 18 19 15 12 11
0 0 0 1 1 2 3 4 4 7 8 7 7 9 12 16 19 23 28 35 43 51 57 64 74 82 83 79 73 64 56 44 29 21 21 22 18 14 14 19 19 15 12 11
0 0 1 1 2 3 4 4 3 5 5 4 4 5 6 8 13 21 30 38 45 52 57 62 73 84 86 81 72 66 62 52 37 29 29 27 21 15 15 17 16 13 11 10
1 1 1 1 2 2 3 2 1 1 2 2 3 3 4 6 9 19 32 43 51 58 61 64 72 82 84 79 70 64 64 59 47 37 33 28 22 16 15 16 14 10 8 8
4 3 2 2 2 2 2 2 1 0 0 2 5 5 6 8 11 19 32 45 55 61 62 64 70 76 77 72 65 61 62 61 52 39 30 23 17 13 13 13 10 6 4 4
5 5 5 4 4 3 2 2 1 0 0 2 7 8 8 10 15 20 30 45 57 60 60 64 67 70 69 65 60 59 60 61 53 39 27 18 13 11 11 10 7 3 1 1

GEFSCGP_con_prob3kmehi_150.txt.gz
EHI
0 0 0 0 0 0 0 0 0 0 0 1 5 11 17 24 29 28 26 26 25 20 17 17 14 11 10 9 8 7 6 5 2 2 2 1 0 1 0 0 0 0 0 0
0 0 0 0 0 0 0 0 0 0 0 1 4 8 14 22 27 28 27 26 24 20 17 17 13 9 7 7 7 7 6 4 2 1 1 0 0 1 0 0 0 0 0 0
0 0 0 0 0 0 0 0 0 0 0 1 3 5 9 18 25 27 26 24 22 18 16 14 10 6 5 5 5 6 5 3 1 0 0 0 0 0 0 0 0 0 0 0
0 0 0 0 0 0 0 0 0 0 0 0 1 2 5 13 22 26 24 22 19 16 14 11 7 4 4 4 4 4 4 2 0 0 0 0 0 0 0 0 0 0 0 0
0 0 0 0 0 0 0 0 0 0 0 0 0 1 2 8 17 23 23 20 17 15 13 10 6 3 3 3 2 2 1 0 0 0 0 0 0 0 0 0 0 0 0 0
0 0 0 0 0 0 0 0 0 0 0 0 0 0 1 5 11 18 20 19 16 13 12 9 5 3 3 1 1 1 0 0 0 0 0 0 0 0 0 0 0 0 0 0
0 0 0 0 0 0 0 0 0 0 0 0 0 0 0 3 7 13 17 19 15 12 11 9 5 3 2 1 0 0 0 0 0 0 0 0 0 0 0 0 0 0 0 0
0 0 1 1 1 0 0 0 0 0 0 0 0 0 0 2 5 10 14 17 15 11 10 10 6 4 2 1 0 0 0 0 0 0 0 0 0 0 0 0 0 0 0 0
0 0 1 2 2 1 0 0 0 0 0 0 0 0 0 1 2 6 11 15 15 11 10 10 6 3 3 2 1 0 0 0 0 0 0 0 0 0 0 0 0 0 0 0
0 0 1 2 3 2 1 0 0 0 0 0 0 1 1 0 0 4 9 14 15 12 10 9 6 3 3 3 1 0 0 0 0 0 0 0 0 0 0 0 0 0 0 0
0 0 0 1 2 3 2 1 0 0 0 0 0 1 1 0 0 2 8 12 12 12 10 9 6 4 3 3 2 1 0 0 0 0 0 0 0 0 0 0 0 0 0 0
0 0 0 0 1 2 2 1 0 0 0 0 0 0 0 0 0 2 6 9 9 10 11 10 8 5 4 4 3 1 0 0 0 0 0 0 0 0 0 0 0 0 0 0
0 0 0 0 0 1 1 0 0 0 0 0 0 0 0 0 1 1 4 7 9 11 12 12 10 7 5 5 5 3 1 0 0 0 0 0 0 0 0 0 0 0 0 0
0 0 0 0 0 0 0 0 0 0 0 0 0 0 0 0 0 0 3 7 10 12 13 13 11 9 7 7 7 5 2 1 1 0 0 0 0 0 0 0 0 0 0 0
0 0 0 0 0 0 0 0 0 1 1 0 0 0 1 1 0 1 3 7 9 10 13 14 14 11 9 9 10 8 5 3 2 1 0 0 0 0 0 0 0 0 0 0
0 0 0 0 0 0 0 0 1 2 2 1 1 1 2 2 3 4 6 9 10 10 12 15 16 14 12 12 12 12 9 6 4 3 1 0 0 0 0 0 0 0 0 0
0 0 0 0 0 0 0 0 2 3 3 3 3 3 4 4 5 8 9 10 11 12 13 16 16 16 16 16 15 15 13 10 7 6 3 1 0 0 0 0 0 0 0 0
0 0 0 0 0 0 0 0 1 3 4 4 4 5 5 5 6 9 10 10 11 12 14 16 18 19 20 19 17 17 17 14 11 8 6 2 0 0 0 0 0 0 0 0
0 0 0 0 0 0 0 0 0 2 4 4 3 3 4 5 6 7 9 10 11 13 16 18 20 23 24 22 19 18 18 16 12 10 7 4 1 0 0 0 0 0 0 0
0 0 0 0 0 0 0 0 0 1 3 3 1 1 1 3 5 6 8 11 12 14 17 20 22 26 27 24 21 19 18 16 12 9 7 4 2 0 0 0 0 0 0 0
0 0 0 0 0 0 0 0 0 1 1 1 0 0 0 1 2 3 7 12 14 15 18 21 25 30 30 26 22 19 18 14 9 7 5 3 1 0 0 0 0 0 0 0
0 0 1 0 0 0 0 1 1 0 0 0 0 0 0 0 0 3 8 12 13 15 19 23 28 32 32 27 22 18 15 11 7 4 3 1 0 0 0 0 0 0 0 0
0 0 0 0 0 0 1 2 2 1 0 0 0 0 0 0 1 4 8 9 10 15 22 26 29 30 28 24 19 14 11 8 5 3 1 0 0 0 0 0 0 1 1 0
0 0 0 0 0 0 1 2 2 1 0 0 0 0 0 1 2 4 5 5 7 13 21 26 28 25 22 19 14 9 7 6 5 3 1 0 0 0 0 0 0 1 1 1
0 0 0 0 0 0 0 1 1 1 0 0 0 0 0 1 2 3 3 4 6 11 18 22 23 20 17 14 10 5 4 4 4 3 1 0 0 0 0 0 0 1 1 0
0 0 0 0 0 0 0 0 1 0 0 0 0 0 0 0 1 3 3 4 5 9 14 19 20 17 14 12 8 4 3 3 3 2 1 0 0 0 0 0 0 0 0 0

GEFSCGP_con_prob3kmehi_156.txt.gz
EHI
0 0 0 0 0 0 0 0 0 0 0 0 0 2 6 12 15 15 14 17 17 14 11 10 10 10 8 5 4 3 4 5 5 3 2 1 0 0 1 1 1 0 0 0
0 0 0 0 0 0 0 0 0 0 0 1 1 2 6 10 13 14 14 15 15 13 12 12 12 10 8 6 5 4 4 5 4 2 1 1 1 0 0 0 0 0 0 0
0 0 0 0 0 0 0 0 0 0 0 1 1 1 3 6 11 13 13 14 14 12 11 13 12 9 8 7 5 4 3 3 2 1 1 2 1 0 0 0 0 0 0 0
0 0 0 0 0 0 0 0 0 0 0 1 1 0 1 4 8 10 11 13 14 13 11 11 10 8 6 5 4 3 2 1 0 0 1 1 1 0 0 0 0 0 0 0
0 0 0 0 0 0 0 0 0 0 0 0 0 0 0 2 3 5 9 13 14 13 11 10 9 6 4 3 3 2 1 0 0 0 0 0 0 0 0 0 0 0 0 0
0 0 0 0 0 0 0 0 0 0 0 0 0 0 0 0 0 3 7 12 13 13 11 9 8 5 3 3 3 2 1 0 0 0 0 0 0 0 0 0 0 0 0 0
0 0 0 0 0 0 0 0 0 0 0 0 0 0 0 0 0 2 6 10 12 11 10 9 7 4 3 3 3 2 1 0 0 0 0 0 0 0 0 0 0 0 0 0
0 0 0 0 0 0 0 0 0 0 0 0 0 0 0 0 0 1 4 9 10 9 8 8 6 4 3 3 2 1 0 0 0 0 0 0 0 0 0 0 0 0 0 0
0 0 0 0 0 0 0 0 0 0 0 0 0 0 0 0 1 1 3 7 8 7 6 6 5 4 3 1 1 0 0 0 0 0 0 0 0 0 0 0 0 0 0 0
0 0 0 0 0 0 0 0 0 0 0 0 0 0 0 0 1 2 3 4 6 6 5 4 4 3 2 1 0 0 0 0 0 0 0 0 0 0 0 0 0 0 0 0
0 0 0 0 0 0 0 0 0 0 0 0 0 0 0 0 1 1 1 3 5 5 4 3 3 3 1 0 0 0 0 0 0 0 0 0 0 0 0 0 0 0 0 0
0 0 0 0 0 0 0 0 0 0 0 0 0 0 0 0 0 0 1 3 4 4 2 1 3 3 1 0 0 0 0 0 0 0 0 0 0 0 0 0 0 0 0 0
0 0 0 0 0 0 0 0 0 0 0 0 0 0 0 0 0 0 1 2 3 2 0 0 1 2 1 0 0 0 0 0 0 0 0 0 0 0 0 0 0 0 0 0
0 0 0 0 0 0 0 0 0 0 0 0 0 0 0 0 0 0 0 1 1 1 0 0 0 0 0 0 0 0 0 0 0 0 0 0 0 0 0 0 0 0 0 0
0 0 0 0 0 0 0 0 0 0 0 0 0 0 0 0 0 0 0 0 0 0 0 0 0 0 0 0 0 0 0 0 0 0 0 0 0 0 0 0 0 0 0 0
0 0 0 0 0 0 0 0 0 0 0 0 0 0 0 0 0 0 0 0 0 0 0 0 0 0 0 0 0 0 0 0 0 0 0 0 0 0 0 0 0 0 0 0
0 0 0 0 0 0 0 0 0 0 0 0 0 0 0 0 0 0 0 0 0 0 0 0 0 0 0 0 0 0 0 0 0 0 0 0 0 0 0 0 0 0 0 0
0 0 0 0 0 0 0 0 0 0 0 0 0 0 0 0 0 0 0 0 0 0 0 0 0 0 0 0 0 0 0 0 0 0 0 0 0 0 0 0 0 0 0 0
0 0 0 0 0 0 0 0 0 0 0 0 0 0 0 0 0 0 0 0 0 0 1 1 0 0 0 0 1 1 1 0 0 0 1 1 1 1 0 0 0 0 0 0
0 0 0 0 0 0 0 0 0 0 0 0 0 0 0 0 0 0 0 0 0 1 2 2 1 0 0 1 1 2 1 1 1 1 2 2 2 2 1 0 0 0 0 0
0 0 0 0 0 0 0 0 0 0 0 0 0 0 0 0 0 0 0 0 1 2 3 3 2 1 1 2 3 3 2 2 2 3 3 3 3 2 1 0 0 0 0 0
0 0 0 0 0 0 0 0 0 0 0 0 0 0 0 0 0 0 0 0 1 2 2 2 2 1 1 2 3 3 3 2 3 3 2 2 2 1 0 0 0 0 0 0
0 0 0 0 0 0 0 0 0 0 0 0 0 0 0 0 0 0 0 0 0 1 1 1 1 0 0 1 2 2 2 1 2 3 2 1 0 0 0 0 0 0 0 0
0 0 0 0 0 0 0 0 0 0 0 0 0 0 0 0 0 0 0 0 0 0 0 0 0 0 0 0 1 1 1 1 3 3 2 1 0 0 0 0 0 0 0 0
0 0 0 0 0 0 0 0 0 0 0 0 0 1 0 0 0 0 0 0 0 0 0 0 0 0 0 0 0 0 1 2 3 3 3 1 0 0 0 0 0 0 0 0
0 0 0 0 0 0 0 0 0 0 0 0 0 1 0 0 0 0 0 0 0 0 0 0 0 0 0 0 0 1 2 3 3 3 3 2 1 0 0 0 0 0 0 0

GEFSCGP_con_prob3kmehi_162.txt.gz
EHI
0 0 0 0 0 0 0 0 0 0 0 0 0 0 4 11 14 13 17 21 23 23 22 20 18 14 12 13 16 19 19 18 18 16 15 13 8 5 5 4 2 2 1 0
0 0 0 0 0 0 0 0 0 0 0 0 0 0 4 10 13 13 17 22 24 24 24 22 18 15 13 14 16 18 18 18 17 16 14 12 9 6 4 4 3 3 1 0
0 0 0 0 0 0 0 0 0 0 0 0 0 1 4 7 10 12 17 23 25 24 24 21 18 16 15 16 15 16 18 17 16 13 10 9 9 6 3 3 4 4 1 1
0 0 0 0 0 0 0 0 0 0 0 0 0 1 3 6 7 11 17 22 23 23 22 21 19 17 16 16 16 16 18 17 14 11 7 6 5 3 2 3 4 3 1 1
0 0 0 0 0 0 0 0 0 0 0 0 0 0 2 5 6 9 16 21 22 22 22 20 19 18 16 15 15 16 17 17 14 10 7 6 3 1 2 4 4 3 2 2
0 0 0 0 0 0 0 0 0 0 0 0 0 0 1 2 3 5 11 18 22 23 21 20 20 19 16 14 13 14 15 16 14 10 8 6 3 1 2 4 4 3 3 3
0 0 0 0 0 0 0 0 0 0 0 0 0 0 0 0 1 1 5 13 22 24 22 20 21 21 17 14 12 12 13 14 11 7 5 3 2 1 1 3 3 3 3 4
0 0 0 0 0 0 0 0 0 0 0 0 0 0 0 0 0 0 2 8 18 23 22 20 22 22 19 15 12 11 11 12 10 6 3 1 1 1 1 1 2 1 1 2
0 0 0 0 0 0 0 0 0 0 0 0 0 0 0 0 0 0 1 4 11 18 19 19 21 22 20 16 13 11 10 10 9 6 4 1 0 1 1 0 0 0 0 0
0 0 0 0 0 0 0 0 0 0 0 0 0 0 0 0 0 0 0 2 7 14 18 20 20 20 18 15 12 10 8 8 6 4 2 1 0 1 0 0 0 0 0 0
0 0 0 0 0 0 0 0 0 0 0 0 0 0 0 0 1 0 0 2 5 12 17 18 18 17 16 14 11 8 7 5 3 1 1 0 1 1 0 0 0 0 0 0
0 0 0 0 0 0 0 0 0 0 0 0 0 0 0 0 0 0 1 3 6 11 15 16 14 15 15 14 11 8 6 4 2 1 0 1 1 0 0 0 0 0 0 0
0 0 0 0 0 0 0 0 0 0 0 0 0 0 0 0 0 1 2 4 6 12 16 16 15 15 15 14 11 7 5 3 2 1 1 1 1 0 0 0 0 0 0 0
0 0 0 0 0 0 0 0 0 0 0 0 0 0 0 0 1 2 4 5 8 14 18 20 19 17 16 13 9 5 4 3 3 2 1 1 0 0 0 0 0 0 0 0
0 0 0 0 0 0 0 0 0 0 0 0 0 0 0 0 1 3 6 7 10 15 19 23 23 19 16 12 7 4 3 4 4 3 2 1 0 0 0 0 0 0 0 0
0 0 0 0 0 0 0 0 0 0 0 0 0 0 0 0 0 2 6 8 10 13 18 24 24 21 16 11 7 5 4 4 4 4 3 2 1 0 0 0 0 1 1 0
0 0 0 0 0 0 0 0 0 0 0 0 0 0 0 0 0 1 5 6 7 9 14 18 22 21 16 12 9 7 6 7 7 6 4 2 1 2 1 0 0 1 1 1
0 0 0 0 0 0 0 0 0 0 0 0 1 1 0 0 0 1 3 5 5 6 8 11 15 16 13 10 10 10 11 11 11 11 9 5 3 3 2 1 1 2 2 1
0 0 0 0 0 0 0 0 0 0 0 0 1 1 0 0 0 1 2 4 4 5 6 8 10 11 10 9 11 14 15 15 15 15 13 8 5 4 3 3 4 5 5 4
0 0 0 0 0 0 0 0 0 0 0 1 1 1 0 0 0 1 2 3 4 5 7 8 9 10 11 11 14 16 18 18 17 16 14 11 8 7 7 7 7 8 9 8
0 0 0 0 0 0 0 0 0 1 1 1 1 1 1 1 2 2 2 3 5 7 9 10 11 12 13 13 16 18 18 18 18 16 16 16 14 11 11 11 10 10 10 9
0 0 0 0 0 0 1 1 2 3 3 2 2 3 3 3 3 3 4 5 8 10 11 12 15 17 16 16 18 20 20 19 17 16 19 22 21 16 14 15 16 14 11 9
0 0 0 0 0 0 1 2 3 3 2 1 1 3 4 4 3 4 6 9 12 15 16 17 20 23 20 18 19 22 24 24 22 21 23 27 28 24 22 23 21 18 13 9
0 0 0 0 0 0 1 2 2 1 1 1 2 3 4 3 4 6 9 13 16 20 20 21 24 25 24 22 22 24 28 31 31 29 30 33 34 32 31 29 24 18 14 10
0 0 0 0 0 0 0 1 1 1 1 1 2 4 5 5 5 7 10 13 15 17 18 20 22 22 23 25 27 28 31 35 38 39 38 38 39 38 35 29 21 14 11 9
0 0 0 0 0 0 0 0 1 2 2 1 3 5 7 7 6 6 8 10 12 12 13 16 17 17 20 26 31 32 32 36 42 45 43 40 41 40 35 27 17 8 5 5